Flag for Brazil Weather past 2 weeks in Manaus, Amazonas, Brazil

Now
93 °F

Scattered clouds.


Feels Like: 101 °F
Forecast: 77 / 95 °F
Wind: 9 mph from Southeast

Location: Manaus Aeroporto

Current Time: Sep 22, 2014 at 12:49:10 PM

Latest Report: Sep 22, 2014 at 12:00 PM


Visibility: N/A

Pressure: 29.89 "Hg

Humidity: 49%

Dew point: 72 °F

Location of ManausLocation

Historic Weather in Manaus — Graph

°F

Manaus temperature yesterday

Maximum temperature yesterday: 93 °F (at 1:00 PM)
Minimum temperature yesterday: 77 °F (at 6:00 AM)
Average temperature yesterday: 86 °F

Past Weeks' High & Low Weather Summary

 TemperatureHumidityPressure
High95 °F (Sep 15, 2:00 PM)89% (Sep 7, 10:00 PM)29.98 "Hg (Sep 7, 10:00 PM)
Low73 °F (Sep 18, 4:00 AM)19% (Sep 8, 4:00 PM)29.71 "Hg (Sep 11, 4:00 PM)
Average84 °F68%29.86 "Hg
* Reported Sep 7 12:00 Noon — Sep 22 12:00 Noon, Manaus, Weather by CustomWeather, © 2014

Note: Actual official high and low records may vary slightly from our data, if they occured in-between our weather recording intervals... More about our weather records

Advertising

Manaus weather history for previous 24 hours

 ConditionsComfort  
Time TempWeatherWind HumidityBarometerVisibility
12:00 PM
Sep 22
93 °FScattered clouds.9 mph49%29.89 "HgN/A
11:00 AM91 °FScattered clouds.8 mph49%29.95 "HgN/A
10:00 AM91 °FPassing clouds.7 mph52%29.95 "HgN/A
9:00 AM90 °FSunny.2 mph52%29.95 "Hg10 mi
8:00 AM88 °FSunny.5 mph55%29.95 "Hg10 mi
7:00 AM84 °FSunny.2 mph66%29.92 "Hg10 mi
6:00 AM79 °FSunny.No wind74%29.89 "Hg10 mi
5:00 AM79 °FClear.2 mph70%29.86 "Hg10 mi
4:00 AM79 °FClear.No wind74%29.86 "Hg10 mi
3:00 AM81 °FClear.2 mph66%29.86 "Hg10 mi
2:00 AM81 °FClear.No wind66%29.86 "Hg10 mi
1:00 AM82 °FClear.2 mph66%29.86 "Hg10 mi
12:00 AM82 °FClear.2 mph66%29.89 "Hg10 mi
11:00 PM
Sep 21
84 °FClear.2 mph62%29.89 "Hg10 mi
10:00 PM86 °FClear.3 mph59%29.89 "Hg10 mi
9:00 PM86 °FClear.3 mph59%29.86 "Hg10 mi
8:00 PM86 °FClear.5 mph55%29.86 "Hg10 mi
7:00 PM88 °FPassing clouds.5 mph52%29.83 "HgN/A
6:00 PM88 °FPassing clouds.2 mph59%29.80 "HgN/A
5:00 PM91 °FPassing clouds.5 mph49%29.80 "HgN/A
4:00 PM93 °FScattered clouds.7 mph47%29.80 "HgN/A
3:00 PM93 °FScattered clouds.6 mph47%29.80 "HgN/A
2:00 PM93 °FScattered clouds.7 mph49%29.86 "HgN/A
1:00 PM93 °FScattered clouds.5 mph49%29.89 "HgN/A
12:00 PM91 °FScattered clouds.8 mph52%29.92 "HgN/A
Weather by CustomWeather, © 2014

See weather overviewHow to use our weather pages